Wetbulb
63.07 60.97 60.74 61.00 59.99 59.03 59.83 57.52 59.89 58.47 58.69 57.64 56.78 57.86 57.42 55.64 55.64 55.67 53.61 53.77 53.76 52.81
61.56 61.44 60.48 62.34 61.31 60.69 60.28 58.47 59.20 58.86 57.50 56.94 55.80 57.06 57.60 54.93 54.95 54.97 54.31 54.78 55.17 52.96
61.31 61.77 61.05 60.25 59.96 59.84 59.94 59.40 58.71 58.01 57.13 56.51 55.01 56.40 56.99 56.01 55.18 54.70 54.14 55.01 53.81 53.83
60.44 60.58 59.94 58.99 59.22 59.12 59.74 59.36 58.10 57.66 56.65 56.01 54.52 55.95 56.56 55.94 54.61 53.88 54.23 53.75 54.96 53.53
60.32 60.06 59.14 58.88 58.81 58.98 58.38 59.02 58.35 58.05 56.75 55.53 54.63 55.91 56.24 55.60 55.22 53.82 53.90 54.03 54.16 54.27
59.65 59.40 58.83 58.64 58.98 58.56 58.62 58.09 58.21 56.93 56.17 55.75 54.73 55.35 55.89 55.44 54.70 54.93 54.90 54.52 54.24 53.87
59.40 58.79 58.55 58.92 59.14 58.68 58.81 57.92 57.90 57.43 57.08 56.19 55.29 55.07 54.75 54.58 54.49 54.84 54.75 55.70 55.13 53.09
59.85 59.33 58.86 58.95 58.74 58.70 58.79 58.37 58.54 57.32 57.13 56.37 55.14 53.84 55.20 55.91 55.27 54.43 54.31 55.06 55.53 54.78
59.58 58.21 58.61 59.13 58.84 59.15 58.69 58.50 58.19 57.07 56.51 56.62 54.30 49.01 51.04 51.85 53.67 53.67 53.16 52.91 55.03 54.64
59.30 58.35 58.46 58.69 58.57 58.27 58.61 59.28 58.28 57.90 57.00 57.10 57.35 51.25 48.99 50.12 53.94 54.11 53.86 54.43 54.14 54.72
58.79 58.31 58.47 58.52 58.15 58.59 58.85 59.00 58.10 56.33 57.52 56.98 56.69 51.90 48.61 49.42 54.14 54.79 55.47 55.51 55.03 53.23
58.51 58.19 57.98 57.41 58.06 58.89 58.78 57.05 57.42 58.04 57.71 57.35 57.48 51.92 48.58 49.88 55.37 55.20 54.80 55.05 51.91 54.12
58.50 58.52 57.79 58.25 58.42 58.76 58.27 55.63 56.72 56.70 57.85 55.44 57.34 46.56 48.02 47.29 52.75 52.92 52.89 49.89 47.44 44.77
59.06 58.75 59.47 59.34 58.87 58.22 56.82 57.67 56.94 56.81 58.41 57.78 53.11 49.98 45.59 45.34 50.58 50.76 49.33 48.71 49.10 46.51
MSLP
1015.86 1016.52 1017.07 1017.58 1017.76 1018.20 1018.33 1018.98 1019.40 1019.56 1019.67 1019.97 1020.08 1020.10 1020.34 1020.62 1020.73 1020.90 1020.95 1020.86 1020.64 1020.45
1015.84 1016.31 1016.77 1017.43 1017.90 1018.29 1018.45 1018.74 1019.08 1019.40 1019.74 1019.96 1020.07 1019.95 1020.16 1020.37 1020.46 1020.67 1020.69 1020.79 1020.74 1020.61
1015.71 1016.14 1016.81 1017.60 1018.14 1018.23 1018.53 1018.74 1019.14 1019.48 1019.69 1019.88 1019.91 1019.81 1020.03 1020.42 1020.46 1020.42 1020.46 1020.44 1020.54 1020.56
1015.49 1016.10 1016.95 1017.72 1018.08 1018.29 1018.69 1018.93 1019.10 1019.35 1019.55 1019.71 1019.91 1020.05 1020.25 1020.32 1020.24 1020.09 1020.14 1020.21 1020.31 1020.33
1015.40 1016.09 1016.85 1017.46 1017.93 1018.32 1018.70 1018.83 1019.04 1019.21 1019.49 1019.62 1019.81 1020.10 1020.23 1020.24 1020.17 1020.07 1020.02 1020.07 1020.05 1020.05
1015.42 1016.09 1016.64 1017.28 1017.86 1018.26 1018.56 1018.86 1018.86 1019.16 1019.39 1019.51 1019.72 1020.01 1020.22 1020.19 1020.11 1019.97 1019.84 1019.89 1019.82 1019.72
1015.44 1015.96 1016.59 1017.20 1017.72 1018.17 1018.41 1018.53 1018.73 1018.97 1019.15 1019.31 1019.47 1019.69 1019.78 1019.77 1019.77 1019.69 1019.69 1019.61 1019.56 1019.47
1015.17 1015.79 1016.45 1017.05 1017.60 1017.93 1018.17 1018.22 1018.34 1018.62 1018.79 1019.02 1019.28 1019.34 1019.38 1019.60 1019.47 1019.50 1019.42 1019.39 1019.25 1019.03
1014.95 1015.48 1016.30 1016.97 1017.40 1017.72 1017.89 1018.03 1018.14 1018.27 1018.46 1018.64 1018.92 1019.18 1019.30 1019.48 1019.43 1019.35 1019.21 1019.02 1018.87 1018.93
1015.07 1015.69 1016.29 1016.80 1017.21 1017.51 1017.78 1018.02 1018.16 1018.21 1018.25 1018.41 1018.63 1018.97 1019.14 1019.26 1019.26 1019.17 1018.87 1018.55 1018.46 1018.50
1014.67 1015.47 1016.08 1016.58 1017.02 1017.34 1017.66 1017.94 1018.10 1018.12 1018.16 1018.33 1018.52 1018.70 1018.85 1018.97 1019.07 1018.88 1018.39 1017.97 1017.83 1017.88
1014.07 1014.87 1015.68 1016.28 1016.78 1017.22 1017.53 1017.80 1017.88 1017.95 1018.02 1018.22 1018.36 1018.55 1018.66 1018.88 1018.87 1018.35 1017.96 1017.48 1017.88 1017.87
1013.77 1014.58 1015.20 1015.82 1016.51 1017.08 1017.36 1017.57 1017.58 1017.68 1017.79 1018.02 1018.15 1018.66 1018.80 1019.14 1018.90 1018.28 1018.02 1018.21 1018.37 1018.48
1013.45 1014.30 1014.86 1015.56 1016.35 1016.90 1017.14 1017.13 1017.43 1017.40 1017.31 1017.58 1018.17 1018.55 1018.70 1018.63 1018.74 1018.45 1018.22 1017.81 1018.19 1018.64
Wind_Speed
8 5 6 5 4 2 3 7 5 4 4 2 3 3 1 3 3 3 2 3 4 5
8 8 7 5 6 1 4 6 5 4 4 1 3 1 1 3 4 1 2 3 3 4
9 7 8 7 4 5 3 6 5 3 3 2 1 3 1 4 4 3 1 1 2 3
9 8 8 6 5 5 5 2 5 4 4 4 3 1 1 1 3 3 2 3 3 4
10 9 9 7 6 6 5 4 4 4 2 2 1 3 4 5 3 3 3 4 3 5
11 10 9 7 7 7 6 5 4 5 4 4 4 5 4 4 4 4 4 5 5 5
11 10 9 8 7 6 6 7 6 4 5 4 4 5 5 6 5 5 5 5 5 6
11 10 9 8 8 6 6 5 6 6 5 4 3 6 5 5 2 5 6 6 8 8
11 10 8 7 7 6 5 4 4 4 4 5 6 8 5 1 3 5 6 8 8 7
9 9 8 8 7 6 5 4 4 4 3 3 4 10 8 6 4 6 7 9 8 5
11 10 9 8 7 6 5 5 4 5 4 4 4 10 10 8 5 7 10 10 3 5
12 11 10 9 7 5 5 4 4 4 4 4 5 7 8 4 6 9 11 10 6 1
10 9 10 9 7 6 4 5 4 6 5 7 3 8 7 2 5 6 6 8 7 11
10 8 9 7 6 6 5 4 5 5 4 6 8 4 6 4 4 2 4 6 5 3
Wind_Direction
137 141 146 211 121 196 148 112 133 147 161 58 337 101 6 76 70 59 97 29 358 332
164 153 153 151 103 123 82 139 168 155 97 88 323 29 32 119 99 198 291 114 17 350
176 142 114 115 186 138 161 75 114 145 153 166 243 221 157 148 183 210 84 51 59 284
162 144 131 149 198 137 123 199 165 190 171 187 190 217 151 220 228 213 161 248 242 256
150 148 153 167 170 155 162 181 206 176 214 154 144 148 229 238 27 341 316 318 323 289
155 157 161 160 167 163 180 179 202 173 203 217 151 178 234 285 300 315 314 294 278 290
159 161 164 168 165 181 192 181 184 190 201 203 184 209 215 230 234 251 274 294 296 274
161 164 170 174 176 186 198 209 187 185 201 188 220 239 214 246 328 320 306 298 299 301
163 162 171 175 172 192 192 210 210 203 219 191 222 120 120 213 279 283 282 280 287 310
165 172 172 175 182 182 195 190 212 247 244 225 228 178 194 205 250 270 279 283 286 290
172 176 173 178 189 176 171 194 208 231 230 239 268 185 213 216 254 268 270 272 167 190
171 176 173 181 180 159 168 199 215 224 239 235 239 217 218 209 275 288 299 297 42 294
179 178 173 177 161 165 174 217 218 212 212 236 181 107 102 350 299 300 335 97 77 72
171 179 163 150 147 164 203 232 201 277 226 224 125 134 158 144 276 354 323 325 136 110